TimePST,TemperatureF,Dew PointF,Humidity,Sea Level PressureIn,VisibilityMPH,Wind Direction,Wind SpeedMPH,Gust SpeedMPH,PrecipitationIn,Events,Conditions,WindDirDegrees,DateUTC
12:32 AM,51.8,50.0,94,30.03,10.0,South,3.5,-,N/A,,Overcast,190,2012-11-21 08:32:00
12:56 AM,52.0,50.0,93,30.02,10.0,South,5.8,-,N/A,,Overcast,170,2012-11-21 08:56:00
1:06 AM,53.6,50.0,88,30.03,10.0,South,4.6,-,N/A,,Overcast,180,2012-11-21 09:06:00
1:18 AM,51.8,50.0,94,30.03,10.0,South,4.6,-,N/A,,Overcast,180,2012-11-21 09:18:00
1:28 AM,51.8,50.0,94,30.03,10.0,South,4.6,-,0.00,Rain,Light Rain,180,2012-11-21 09:28:00
1:36 AM,51.8,50.0,94,30.03,7.0,South,3.5,-,0.00,Rain,Light Rain,170,2012-11-21 09:36:00
1:56 AM,52.0,50.0,93,30.02,6.0,Calm,Calm,-,0.01,Rain,Light Rain,0,2012-11-21 09:56:00
2:22 AM,51.8,51.8,100,30.03,5.0,Calm,Calm,-,0.01,Rain,Light Rain,0,2012-11-21 10:22:00
2:36 AM,53.6,51.8,94,30.04,9.0,Calm,Calm,-,0.01,,Overcast,0,2012-11-21 10:36:00
2:56 AM,53.1,51.1,93,30.03,4.0,NW,3.5,-,0.03,Rain,Light Rain,320,2012-11-21 10:56:00
3:15 AM,53.6,51.8,94,30.03,7.0,Calm,Calm,-,0.00,,Overcast,0,2012-11-21 11:15:00
3:23 AM,53.6,51.8,94,30.03,8.0,Calm,Calm,-,0.00,Rain,Light Rain,0,2012-11-21 11:23:00
3:30 AM,53.6,51.8,94,30.03,10.0,Calm,Calm,-,0.00,,Overcast,0,2012-11-21 11:30:00
3:52 AM,53.6,51.8,94,30.02,10.0,Calm,Calm,-,0.00,,Overcast,0,2012-11-21 11:52:00
3:56 AM,53.1,52.0,96,30.01,10.0,South,3.5,-,0.00,,Overcast,170,2012-11-21 11:56:00
4:08 AM,53.6,51.8,94,30.02,10.0,Calm,Calm,-,N/A,,Overcast,0,2012-11-21 12:08:00
4:56 AM,52.0,51.1,97,30.04,10.0,Calm,Calm,-,N/A,,Scattered Clouds,0,2012-11-21 12:56:00
5:31 AM,51.8,51.8,100,30.06,9.0,Calm,Calm,-,N/A,,Overcast,0,2012-11-21 13:31:00
5:56 AM,52.0,51.1,97,30.06,8.0,Calm,Calm,-,N/A,,Overcast,0,2012-11-21 13:56:00
6:52 AM,51.8,51.8,100,30.09,2.5,Calm,Calm,-,0.00,Rain,Light Rain,0,2012-11-21 14:52:00
6:56 AM,52.0,51.1,97,30.08,3.0,Calm,Calm,-,0.01,Rain,Light Rain,0,2012-11-21 14:56:00
7:56 AM,52.0,51.1,97,30.11,10.0,North,3.5,-,0.00,,Overcast,350,2012-11-21 15:56:00
8:11 AM,53.6,51.8,94,30.12,3.0,Calm,Calm,-,0.01,Rain,Light Rain,0,2012-11-21 16:11:00
8:13 AM,53.6,51.8,94,30.12,2.5,Calm,Calm,-,0.01,Rain,Rain,0,2012-11-21 16:13:00
8:22 AM,53.6,51.8,94,30.13,3.0,Calm,Calm,-,0.02,Rain,Light Rain,0,2012-11-21 16:22:00
8:56 AM,53.1,52.0,96,30.13,5.0,Calm,Calm,-,0.03,Rain,Light Rain,0,2012-11-21 16:56:00
9:03 AM,53.6,51.8,94,30.14,2.5,Calm,Calm,-,0.01,Rain,Light Rain,0,2012-11-21 17:03:00
9:12 AM,53.6,51.8,94,30.15,3.0,Calm,Calm,-,0.01,Rain,Light Rain,0,2012-11-21 17:12:00
9:56 AM,55.9,48.0,75,30.15,10.0,Calm,Calm,-,0.01,,Overcast,0,2012-11-21 17:56:00
10:56 AM,57.0,46.0,67,30.17,10.0,NW,8.1,-,N/A,,Clear,320,2012-11-21 18:56:00
12:56 PM,59.0,43.0,55,30.15,10.0,West,8.1,-,N/A,,Clear,280,2012-11-21 20:56:00
1:56 PM,59.0,44.1,58,30.15,10.0,NW,11.5,-,N/A,,Clear,320,2012-11-21 21:56:00
2:56 PM,57.9,43.0,58,30.16,10.0,WNW,5.8,-,N/A,,Clear,290,2012-11-21 22:56:00
3:56 PM,55.9,42.1,60,30.17,10.0,West,4.6,-,N/A,,Clear,280,2012-11-21 23:56:00
4:56 PM,53.1,43.0,69,30.18,10.0,ESE,3.5,-,N/A,,Clear,120,2012-11-22 00:56:00
5:56 PM,48.9,43.0,80,30.19,10.0,Calm,Calm,-,N/A,,Clear,0,2012-11-22 01:56:00
6:56 PM,46.9,43.0,86,30.22,10.0,Calm,Calm,-,N/A,,Clear,0,2012-11-22 02:56:00
7:56 PM,46.9,42.1,83,30.22,10.0,Calm,Calm,-,N/A,,Clear,0,2012-11-22 03:56:00
8:56 PM,45.0,42.1,90,30.24,10.0,Calm,Calm,-,N/A,,Clear,0,2012-11-22 04:56:00
9:56 PM,44.1,41.0,89,30.24,10.0,Calm,Calm,-,N/A,,Clear,0,2012-11-22 05:56:00
10:56 PM,42.1,39.9,92,30.24,9.0,Calm,Calm,-,N/A,,Clear,0,2012-11-22 06:56:00
11:56 PM,42.1,39.9,92,30.25,10.0,Calm,Calm,-,N/A,,Clear,0,2012-11-22 07:56:00